AirNav   ProFlight Series 2 Aviation Headset
 
 1336 users online  

C01 Southern Cross Airport
Williamstown, New Jersey, USA

GOING TO WILLIAMSTOWN?


FAA INFORMATION EFFECTIVE 13 AUGUST 2020

Location

FAA Identifier: C01
Lat/Long: 39-39-20.0000N 075-00-52.0000W
39-39.333333N 075-00.866667W
39.6555556,-75.0144444
(estimated)
Elevation: 145 ft. / 44 m (estimated)
Variation: 12W (1995)
From city: 3 miles SW of WILLIAMSTOWN, NJ
Time zone: UTC -4 (UTC -5 during Standard Time)
Zip code: 08094

Airport Operations

Airport use: Open to the public
Activation date: 08/1997
Control tower: no
ARTCC: NEW YORK CENTER
FSS: MILLVILLE FLIGHT SERVICE STATION
NOTAMs facility: MIV (NOTAM-D service available)
Attendance: DAYLIGHT HOURS
Wind indicator: yes
Segmented circle: no

Airport Communications

CTAF: 122.9
WX AWOS-AV at N81 (12 nm E): 122.7
WX ASOS at PHL (17 nm NW): PHONE 215-492-9617
WX ASOS at MIV (17 nm S): 119.6 (856-327-3455)
WX ASOS at VAY (19 nm NE): 119.325 (609-267-1176)

Nearby radio navigation aids

VOR radial/distance  VOR name  Freq  Var
VCNr353/7.4CEDAR LAKE VOR/DME115.2010W
OODr095/13.4WOODSTOWN VORTAC112.8010W
ACYr311/23.5ATLANTIC CITY VORTAC117.1510W
DQOr103/27.4DUPONT VORTAC114.0010W
CYNr260/28.6COYLE VORTAC113.4010W
GXUr234/28.7MC GUIRE VORTAC110.6012W
MXEr126/34.1MODENA VORTAC113.2009W
ENOr051/34.5SMYRNA VORTAC111.4009W
SIEr353/35.0SEA ISLE VORTAC114.8009W
ARDr198/36.2YARDLEY VOR/DME108.2010W

 
NDB name  Hdg/Dist  Freq  Var  ID
RAINBOW032/15.336311WRNB .-. -. -...
AMBLER168/30.927512WING .. -. --.
LAKEHURST244/39.039611WNEL -. . .-..

Airport Services

Parking: tiedowns
Airframe service: NONE
Powerplant service: NONE

Runway Information

Runway 9/27

Dimensions: 2400 x 80 ft. / 732 x 24 m
Surface: turf, in good condition
RUNWAY 9  RUNWAY 27
Traffic pattern: leftleft
Obstructions: 33 ft. pline, marked, 50 ft. from runway, 1:1 slope to clear
P-LINE MARKED WITH ORANGE BALLS.
57 ft. tree, 20 ft. from runway, 86 ft. left of centerline

Airport Ownership and Management from official FAA records

Ownership: Privately-owned
Owner: EDWARD A. CARTER
256 SOUTH TUCKAHOE RD
WILLIAMSTOWN, NJ 08094
Phone (609) 820-7987
Manager: EDWARD A CARTER
256 SOUTH TUCKAHOE RD
WILLIAMSTOWN, NJ 08094
Phone (609) 820-7987

Airport Operational Statistics

Aircraft based on the field: 8
Single engine airplanes: 8
    
Aircraft operations: avg 21/month *
86% local general aviation
14% transient general aviation
* for 12-month period ending 30 April 2019

Additional Remarks

FOR CD CTC PHILADELPHIA APCH AT 800-354-9884
DEER & BIRDS ON & INVOF ARPT.

Instrument Procedures

There are no published instrument procedures at C01.

Some nearby airports with instrument procedures:

17N - Cross Keys Airport (3 nm N)
19N - Camden County Airport (8 nm NE)
29N - Kroelinger Airport (8 nm S)
N81 - Hammonton Municipal Airport (12 nm E)
KPHL - Philadelphia International Airport (17 nm NW)
KMIV - Millville Municipal Airport (17 nm S)
7N7 - Spitfire Aerodrome (18 nm W)
KVAY - South Jersey Regional Airport (19 nm NE)
N14 - Flying W Airport (19 nm NE)
 
Loc | Ops | Rwys | IFR | FBO | Links
Com | Nav | Svcs | Stats | Notes
Area around C01 (Southern Cross Airport)
 
Road maps at: MapQuest Bing Google
 
Aerial photo
WARNING: Photo may not be current or correct
Aerial photo of C01 (Southern Cross Airport)
Do you have a better or more recent aerial photo of Southern Cross Airport that you would like to share? If so, please send us your photo.

 
Sectional chart

 
Airport distance calculator
Flying to Southern Cross Airport? Find the distance to fly.

From to C01

Sunrise and sunset
Times for 15-Aug-2020
 Local
(UTC-4)
 Zulu
(UTC)
Morning civil twilight05:4509:45
Sunrise06:1410:14
Sunset19:5423:54
Evening civil twilight20:2300:23

Current date and time
Zulu (UTC)  15-Aug-2020 20:20:19
Local (UTC-4)  15-Aug-2020 16:20:19
 
METAR
KPHL 
16nm NW 
151954Z 11008KT 10SM FEW035 OVC110 26/17 A2998 RMK AO2 SLP152 T02610172
KMIV 
18nm S 
151954Z AUTO 09007KT 10SM SCT100 25/18 A2998 RMK AO2 SLP149 T02500183
KVAY 
19nm NE 
ASOS 119.325 609-267-1176
151954Z AUTO VRB06KT 10SM CLR 26/18 A2998 RMK AO2 SLP152 T02610178
KACY 
23nm SE 
151954Z 07014G23KT 10SM SCT020 BKN024 BKN037 24/19 A2998 RMK AO2 SLP152 T02440194
KPNE 
26nm N 
151954Z 13009KT 10SM FEW050 26/16 A2999 RMK AO2 SLP155 T02610161
KILG 
27nm W 
151951Z AUTO 09009KT 10SM FEW110 26/17 A2998 RMK AO2 SLP152 T02610172
KWRI 
29nm NE 
151856Z 07009KT 10SM FEW180 SCT210 27/17 A3000 RMK AO2A SLP158 T02690171 $
KLOM 
31nm N 
151955Z AUTO 11007KT 10SM CLR 26/16 A3000 RMK AO2 T02600165
TAF
KPHL 
16nm NW 
151720Z 1518/1624 08011KT P6SM BKN150 FM152300 09010KT P6SM OVC120 FM160300 08008KT P6SM VCSH OVC070 FM160600 07008KT P6SM -SHRA OVC035 FM160900 06010KT 6SM -SHRA OVC025 FM161300 05012KT 4SM SHRA OVC015
KMIV 
18nm S 
151720Z 1518/1618 07010KT P6SM OVC150 FM160400 09007KT P6SM VCSH OVC070 FM160700 07006KT P6SM -SHRA OVC035 FM161000 07008KT 6SM -SHRA OVC025 FM161300 07010KT 4SM SHRA OVC015
NOTAMs
Click for the latest NOTAMs
NOTAMs are issued by the DoD/FAA and will open in a separate window not controlled by AirNav.

 

 
 

Would you like to see your business listed on this page?

 If your business provides an interesting product or service to pilots, flight crews, aircraft, or users of the Southern Cross Airport, you should consider listing it here.  To start the listing process, click on the button below
 
Add a business
 

Other Pages about Southern Cross Airport

Update a link
 
Copyright © AirNav, LLC. All rights reserved. Privacy Policy  Contact